Quincy, IL

10:03 PM CDT on June 25, 2017 (GMT -0500)
Quincy Regional-Baldwin

Weather History for KUIN - January, 2014

Change the Weather History Date:

Saturday, January 25, 2014

  Actual Average Record
Temperature  
Mean Temperature 29 °F 27 °F  
Max Temperature 40 °F 35 °F 71 °F (1950)
Min Temperature 18 °F 19 °F -14 °F (1940)
Degree Days  
Heating Degree Days 36 38  
Month to date heating degree days 1031 970  
Since 1 July heating degree days 3347 3161  
Cooling Degree Days 0 0  
Month to date cooling degree days 0 0  
Year to date cooling degree days 0 0  
Moisture  
Dew Point 10 °F    
Average Humidity 50    
Maximum Humidity 76    
Minimum Humidity 23    
Precipitation  
Precipitation T in 0.05 in 0.43 in (1949)
Month to date precipitation 0.64 1.24  
Year to date precipitation 0.64 1.24  
Sea Level Pressure  
Sea Level Pressure 29.83 in    
Wind  
Wind Speed 15 mph (WNW)    
Max Wind Speed 36 mph    
Max Gust Speed 42 mph    
Visibility 10 miles    
Events Rain    
T = Trace of Precipitation, MM = Missing Value Source: NWS Daily Summary

Daily Weather History Graph

Daily Weather History Graph

Search for Another Location

Airport or City:

Trip Planner

Search our weather history database for the weather conditions in past years. The results will help you decide how hot, cold, wet, or windy it might be!

Date:

Astronomy

Jan. 25, 2014 Rise Set
Actual Time 7:18 AM CST 5:15 PM CST
Civil Twilight 6:49 AM CST 5:44 PM CST
Nautical Twilight 6:17 AM CST 6:17 PM CST
Astronomical Twilight 5:45 AM CST 6:49 PM CST
Moon 1:51 AM CST (1/25) 12:16 PM CST (1/25)
Length of Visible Light 10h 54m
Length of Day
9h 56m
Waning Crescent, 34% of the Moon is Illuminated
Jan 25
Waning Crescent
Jan 30
New
Feb 6
First Quarter
Feb 14
Full
Feb 22
Last Quarter

Hourly Weather History & Observations

Time (CST) Temp. Windchill Dew Point Humidity Pressure Visibility Wind Dir Wind Speed Gust Speed Precip Events Conditions
12:54 AM 37.9 °F 29.2 °F 18.0 °F 45% 29.62 in 10.0 mi WSW 15.0 mph 25.3 mph N/A   Overcast
1:36 AM 39.9 °F 31.4 °F 19.9 °F 45% 29.60 in 10.0 mi West 16.1 mph - 0.00 in Rain Light Rain
1:54 AM 39.0 °F 31.0 °F 21.9 °F 50% 29.63 in 10.0 mi West 13.8 mph 23.0 mph 0.00 in Rain Light Rain
2:54 AM 39.0 °F 30.3 °F 27.0 °F 62% 29.66 in 10.0 mi WNW 16.1 mph - 0.00 in   Overcast
3:39 AM 37.0 °F 28.5 °F 32.0 °F 82% 29.66 in 10.0 mi NW 13.8 mph - 0.00 in   Overcast
3:54 AM 37.0 °F 28.5 °F 30.0 °F 76% 29.68 in 10.0 mi NW 13.8 mph - 0.00 in   Overcast
4:54 AM 36.0 °F 27.1 °F 27.0 °F 70% 29.70 in 10.0 mi NW 13.8 mph - N/A   Overcast
5:54 AM 36.0 °F 26.3 °F 27.0 °F 70% 29.71 in 10.0 mi WNW 16.1 mph - N/A   Overcast
6:54 AM 36.0 °F 24.2 °F 27.0 °F 70% 29.74 in 10.0 mi NW 24.2 mph 28.8 mph N/A   Mostly Cloudy
7:54 AM 36.0 °F 23.5 °F 26.1 °F 67% 29.77 in 10.0 mi NW 27.6 mph 34.5 mph N/A   Overcast
8:54 AM 33.1 °F 23.0 °F 16.0 °F 50% 29.81 in 10.0 mi NNW 15.0 mph 26.5 mph N/A   Overcast
9:54 AM 32.0 °F 19.2 °F 6.1 °F 34% 29.86 in 10.0 mi NW 23.0 mph 36.8 mph N/A   Clear
10:54 AM 30.0 °F 15.7 °F -0.0 °F 28% 29.90 in 10.0 mi NNW 26.5 mph 34.5 mph N/A   Clear
11:54 AM 28.9 °F 14.0 °F -2.9 °F 25% 29.91 in 10.0 mi NW 27.6 mph 40.3 mph N/A   Clear
12:54 PM 28.9 °F 15.4 °F -0.0 °F 29% 29.92 in 10.0 mi NW 21.9 mph 27.6 mph N/A   Clear
1:54 PM 28.0 °F 13.9 °F -6.0 °F 23% 29.93 in 10.0 mi NW 23.0 mph 35.7 mph N/A   Clear
2:54 PM 27.0 °F 13.5 °F -4.0 °F 26% 29.96 in 10.0 mi NW 19.6 mph 31.1 mph N/A   Clear
3:54 PM 27.0 °F 13.2 °F -5.1 °F 25% 29.98 in 10.0 mi WNW 20.7 mph 26.5 mph N/A   Clear
4:54 PM 25.0 °F 11.3 °F -4.0 °F 28% 29.97 in 10.0 mi NW 18.4 mph - N/A   Clear
5:54 PM 21.9 °F 12.5 °F -0.0 °F 38% 29.99 in 10.0 mi WNW 8.1 mph - N/A   Clear
6:54 PM 19.0 °F 11.1 °F 1.0 °F 46% 29.99 in 10.0 mi WNW 5.8 mph - N/A   Clear
7:54 PM 19.9 °F - 1.0 °F 44% 29.96 in 10.0 mi Calm Calm - N/A   Clear
8:54 PM 21.0 °F - -0.0 °F 40% 29.94 in 10.0 mi Calm Calm - N/A   Clear
9:54 PM 21.0 °F 14.6 °F 5.0 °F 50% 29.91 in 10.0 mi South 4.6 mph - N/A   Mostly Cloudy
10:54 PM 23.0 °F 15.8 °F 5.0 °F 46% 29.87 in 10.0 mi South 5.8 mph - N/A   Overcast
11:54 PM 24.1 °F 13.7 °F 3.9 °F 42% 29.82 in 10.0 mi South 10.4 mph - N/A   Overcast